GW7247 Weather Reports


time (UTC)temp
C
wind
direction
speed
KPH
gust
KPH
rain 1hr
cm
rain 24hr
cm
rain mn
cm
humidity
%
barometer
mb
20260507101010 7 157 0.0 0.0 0.00 0.84 0.20 88 1006.5
20260507100513 7 157 0.0 0.0 0.00 0.84 0.20 87 1006.6
20260507100024 7 157 0.0 0.0 0.00 0.84 0.20 87 1006.6
20260507095506 7 158 0.0 0.0 0.00 0.84 0.20 87 1006.6
20260507095004 7 158 0.0 0.0 0.00 0.84 0.20 87 1006.5
20260507094510 8 158 0.0 0.0 0.00 0.84 0.20 87 1006.3
20260507094006 8 46 0.0 0.0 0.00 0.84 0.20 86 1006.2
20260507093506 8 46 0.0 1.6 0.00 0.84 0.20 86 1006.0
20260507093014 8 3 0.0 1.6 0.00 0.84 0.20 86 1006.4
20260507092512 8 298 0.0 3.2 0.00 0.84 0.20 84 1006.2
20260507092011 8 340 0.0 3.2 0.00 0.84 0.20 84 1005.7
20260507091520 8 276 0.0 3.2 0.00 0.84 0.20 84 1006.0
20260507091009 8 69 0.0 1.6 0.00 0.84 0.20 85 1005.9
20260507090509 8 271 0.0 4.8 0.00 0.84 0.20 84 1006.1
20260507090024 8 296 0.0 4.8 0.00 0.84 0.20 84 1006.3
20260507085507 8 285 0.0 4.8 0.00 0.84 0.20 84 1006.1
20260507085010 8 8 0.0 4.8 0.00 0.84 0.20 85 1006.1
20260507084528 8 23 0.0 6.4 0.00 0.84 0.20 85 1006.0
20260507084005 8 300 1.6 6.4 0.00 0.84 0.20 85 1006.4
20260507083507 8 309 0.0 3.2 0.00 0.84 0.20 85 1006.4
20260507083011 8 6 0.0 6.4 0.00 0.84 0.20 85 1006.4
20260507082507 8 300 1.6 6.4 0.00 0.84 0.20 85 1006.2
20260507082009 8 302 1.6 8.0 0.00 0.84 0.20 86 1005.9
20260507081529 9 298 0.0 11.3 0.00 0.84 0.20 86 1005.6
20260507081009 9 319 1.6 11.3 0.00 0.84 0.20 86 1005.8
20260507080511 9 274 3.2 6.4 0.00 0.84 0.20 87 1005.6
20260507080023 9 309 0.0 1.6 0.00 0.84 0.20 88 1006.0
20260507075509 9 261 0.0 1.6 0.00 0.84 0.20 89 1006.1
20260507075009 9 254 0.0 4.8 0.00 0.84 0.20 89 1005.8
20260507074525 9 233 0.0 4.8 0.00 0.84 0.20 90 1005.9
20260507074011 9 279 0.0 4.8 0.00 0.84 0.20 90 1005.6
20260507073509 9 277 0.0 3.2 0.00 0.84 0.20 91 1005.6
20260507073025 9 297 0.0 1.6 0.00 0.84 0.20 92 1005.7
20260507072507 9 4 0.0 1.6 0.00 0.84 0.20 92 1005.6
20260507072006 9 292 0.0 3.2 0.00 0.84 0.20 92 1005.6
20260507071515 9 292 0.0 3.2 0.00 0.84 0.20 92 1005.4
20260507071007 9 4 0.0 1.6 0.00 0.84 0.20 93 1005.2
20260507070512 9 4 0.0 1.6 0.00 0.84 0.20 93 1005.5
20260507070018 9 4 0.0 1.6 0.00 0.84 0.20 93 1005.4
20260507065514 9 326 0.0 0.0 0.00 0.84 0.20 93 1005.3
20260507065009 9 326 0.0 0.0 0.00 0.84 0.20 93 1005.4
20260507064522 9 326 0.0 0.0 0.00 0.84 0.20 93 1005.3
20260507064012 10 326 0.0 0.0 0.00 0.84 0.20 93 1005.2
20260507063511 9 326 0.0 0.0 0.00 0.84 0.20 93 1005.0
20260507063026 10 326 0.0 0.0 0.00 0.84 0.20 93 1004.9
20260507062508 10 326 0.0 0.0 0.00 0.84 0.20 93 1005.0
20260507062015 10 326 0.0 0.0 0.00 0.84 0.20 92 1005.1
20260507061529 10 326 0.0 0.0 0.00 0.84 0.20 92 1005.0
20260507061006 10 326 0.0 0.0 0.00 0.84 0.20 92 1004.7
20260507060507 10 326 0.0 1.6 0.03 0.84 0.20 92 1004.7
20260507060018 10 326 0.0 1.6 0.03 0.84 0.20 92 1004.8
20260507055503 10 345 0.0 1.6 0.03 0.84 0.20 92 1005.0
20260507055003 10 292 0.0 1.6 0.03 0.84 0.20 92 1004.9
20260507054504 10 251 0.0 1.6 0.03 0.84 0.20 91 1004.7
20260507054004 10 331 0.0 1.6 0.03 0.84 0.20 91 1004.6
20260507053502 10 329 0.0 6.4 0.03 0.84 0.20 90 1004.6
20260507053006 10 350 0.0 6.4 0.03 0.84 0.20 90 1004.9
20260507052503 10 261 3.2 6.4 0.03 0.84 0.20 89 1004.8
20260507052004 10 280 1.6 8.0 0.05 0.84 0.20 89 1004.9
20260507051508 10 354 1.6 9.7 0.13 0.84 0.20 89 1005.0
20260507051004 11 303 4.8 11.3 0.15 0.84 0.20 88 1004.7
20260507050506 11 286 6.4 11.3 0.15 0.81 0.18 88 1004.5
20260507050013 11 5 4.8 11.3 0.18 0.81 0.18 89 1004.8
20260507045510 11 255 4.8 11.3 0.18 0.81 0.18 90 1004.6
20260507045010 12 314 3.2 9.7 0.18 0.81 0.18 91 1004.6
20260507044519 12 318 4.8 8.0 0.18 0.81 0.18 92 1004.2
20260507044002 12 312 1.6 6.4 0.18 0.81 0.18 95 1004.1
20260507043502 12 12 3.2 6.4 0.18 0.81 0.18 95 1003.9
20260507043004 12 222 0.0 1.6 0.18 0.81 0.18 94 1003.9
20260507042502 12 222 0.0 6.4 0.18 0.81 0.18 94 1003.9
20260507042003 12 222 0.0 6.4 0.15 0.79 0.15 95 1003.8
20260507041515 12 212 3.2 6.4 0.08 0.71 0.08 95 1004.0
20260507041003 12 238 3.2 9.7 0.05 0.69 0.05 96 1004.0
20260507040506 11 222 3.2 9.7 0.05 0.66 0.03 95 1004.0
20260507040011 11 215 3.2 8.0 0.03 0.64 0.00 95 1004.2
20260507035506 11 242 4.8 8.0 0.03 0.64 0.64 95 1003.9
20260507035009 11 200 1.6 6.4 0.03 0.64 0.64 95 1003.8
20260507034516 11 200 1.6 6.4 0.03 0.64 0.64 95 1003.8
20260507034006 11 245 1.6 4.8 0.03 0.64 0.64 95 1003.8
20260507033507 11 210 1.6 4.8 0.03 0.64 0.64 95 1003.6
20260507033020 11 191 0.0 4.8 0.03 0.64 0.64 95 1003.6
20260507032504 11 222 1.6 4.8 0.03 0.64 0.64 95 1003.6
20260507032002 11 229 0.0 4.8 0.03 0.64 0.64 95 1003.6
20260507031504 11 191 1.6 6.4 0.03 0.64 0.64 95 1003.6
20260507031005 11 242 0.0 8.0 0.03 0.64 0.64 95 1003.6
20260507030502 11 247 1.6 8.0 0.00 0.61 0.61 95 1003.6
20260507030009 11 203 3.2 8.0 0.00 0.61 0.61 95 1003.7
20260507025508 11 215 1.6 4.8 0.00 0.61 0.61 95 1003.6
20260507025005 11 229 1.6 6.4 0.00 0.61 0.61 95 1003.6
20260507024510 11 167 0.0 9.7 0.00 0.61 0.61 95 1003.7
20260507024011 11 194 1.6 9.7 0.00 0.61 0.61 95 1003.6
20260507023507 11 173 0.0 3.2 0.00 0.61 0.61 95 1003.7
20260507023015 11 213 1.6 4.8 0.00 0.61 0.61 95 1003.9
20260507022509 11 193 0.0 4.8 0.00 0.61 0.61 95 1004.0
20260507022011 11 247 3.2 6.4 0.00 0.61 0.61 95 1004.0
20260507021521 11 190 1.6 6.4 0.03 0.61 0.61 95 1004.1
20260507021004 11 262 1.6 8.0 0.03 0.61 0.61 95 1004.1
20260507020503 11 195 1.6 8.0 0.05 0.61 0.61 95 1004.2
20260507020005 11 229 1.6 4.8 0.05 0.61 0.61 95 1004.3
20260507015502 11 53 1.6 8.0 0.05 0.61 0.61 95 1004.4
20260507015002 11 184 1.6 8.0 0.05 0.61 0.61 95 1004.2
20260507014523 11 184 3.2 9.7 0.05 0.61 0.61 95 1004.3
20260507014006 11 176 3.2 12.9 0.05 0.61 0.61 95 1004.4
20260507013506 11 205 4.8 12.9 0.05 0.61 0.61 95 1004.4
20260507013031 11 227 3.2 6.4 0.05 0.61 0.61 95 1004.4
20260507012506 11 226 1.6 6.4 0.05 0.61 0.61 95 1004.4
20260507012013 11 226 3.2 6.4 0.05 0.61 0.61 95 1004.4
20260507011532 11 245 1.6 8.0 0.03 0.58 0.58 94 1004.5
20260507011010 11 201 1.6 8.0 0.03 0.58 0.58 94 1004.5
20260507010508 11 194 3.2 16.1 0.00 0.56 0.56 94 1004.6
20260507010024 11 90 4.8 16.1 0.00 0.56 0.56 94 1004.5
20260507005502 11 245 3.2 14.5 0.00 0.56 0.56 94 1004.7
20260507005004 11 243 6.4 14.5 0.00 0.56 0.56 94 1004.6
20260507004511 11 274 3.2 12.9 0.00 0.56 0.56 94 1004.6
20260507004006 11 140 1.6 11.3 0.00 0.56 0.56 94 1004.6
20260507003506 11 143 6.4 11.3 0.00 0.56 0.56 94 1004.6
20260507003012 11 88 3.2 11.3 0.00 0.56 0.56 94 1004.7
20260507002505 11 194 4.8 12.9 0.00 0.56 0.56 94 1004.6
20260507002007 11 172 4.8 12.9 0.00 0.56 0.56 93 1004.7
20260507001514 11 223 3.2 12.9 0.00 0.56 0.56 93 1004.7
20260507001006 11 166 4.8 14.5 0.00 0.56 0.56 93 1004.7
20260507000516 11 153 3.2 17.7 0.00 0.56 0.56 93 1004.8
20260507000028 11 156 4.8 17.7 0.00 0.56 0.56 93 1004.8
20260506235508 11 255 4.8 20.9 0.00 0.56 0.56 93 1004.8
20260506235009 11 226 8.0 20.9 0.00 0.56 0.56 93 1004.7
20260506234524 11 53 4.8 14.5 0.00 0.56 0.56 93 1004.7
20260506234004 11 235 3.2 14.5 0.00 0.56 0.56 93 1004.7
20260506233506 11 112 3.2 14.5 0.00 0.56 0.56 93 1004.8
20260506233008 11 241 4.8 11.3 0.00 0.56 0.56 93 1004.9
20260506232503 11 220 3.2 19.3 0.00 0.56 0.56 93 1005.0
20260506232007 11 209 4.8 19.3 0.00 0.56 0.56 93 1005.1
20260506231514 11 227 4.8 14.5 0.00 0.56 0.56 92 1005.0
20260506231007 11 189 3.2 14.5 0.00 0.56 0.56 92 1005.0
20260506230509 11 183 3.2 14.5 0.00 0.56 0.56 92 1005.2
20260506230019 11 217 4.8 16.1 0.00 0.56 0.56 92 1005.1
20260506225509 11 166 3.2 16.1 0.00 0.56 0.56 92 1005.0
20260506225006 11 293 3.2 24.1 0.03 0.56 0.56 92 1005.2
20260506224522 11 359 4.8 24.1 0.03 0.56 0.56 92 1005.2
20260506224007 11 236 6.4 14.5 0.03 0.56 0.56 91 1005.2
20260506223510 11 215 4.8 14.5 0.05 0.56 0.56 92 1005.4
20260506223025 11 152 6.4 17.7 0.05 0.56 0.56 92 1005.3
20260506222504 11 330 4.8 20.9 0.08 0.56 0.56 92 1005.3
20260506222008 11 179 6.4 20.9 0.08 0.56 0.56 92 1005.4
20260506221509 11 271 4.8 16.1 0.10 0.56 0.56 92 1005.4
20260506221009 11 177 4.8 20.9 0.10 0.56 0.56 92 1005.5
20260506220506 12 158 4.8 20.9 0.13 0.56 0.56 92 1005.5
20260506220016 12 226 3.2 16.1 0.13 0.56 0.56 92 1005.7
20260506215512 12 209 6.4 16.1 0.15 0.56 0.56 92 1005.7
20260506215011 11 200 1.6 12.9 0.15 0.53 0.53 92 1005.7
20260506214520 11 192 4.8 12.9 0.18 0.53 0.53 91 1005.7
20260506214008 12 206 3.2 16.1 0.20 0.53 0.53 91 1005.6
20260506213508 12 146 4.8 16.1 0.18 0.51 0.51 91 1005.6
20260506213022 12 189 4.8 16.1 0.18 0.51 0.51 91 1005.8
20260506212510 12 247 3.2 16.1 0.18 0.48 0.48 91 1005.8
20260506212011 12 146 3.2 16.1 0.18 0.48 0.48 90 1005.9
20260506211525 12 186 3.2 16.1 0.15 0.46 0.46 90 1005.8
20260506211005 12 251 4.8 22.5 0.15 0.46 0.46 90 1006.1
20260506210505 12 249 4.8 22.5 0.13 0.43 0.43 89 1006.0
20260506210009 12 193 6.4 22.5 0.15 0.43 0.43 89 1006.0
20260506205506 12 217 4.8 17.7 0.13 0.41 0.41 89 1006.0
20260506205007 12 142 3.2 11.3 0.10 0.38 0.38 89 1005.9
20260506204518 12 211 1.6 9.7 0.10 0.36 0.36 89 1005.9
20260506204007 12 49 1.6 11.3 0.15 0.33 0.33 88 1005.9
20260506203507 12 103 3.2 11.3 0.20 0.33 0.33 88 1006.0
20260506203022 12 290 3.2 9.7 0.23 0.33 0.33 89 1006.0
20260506202508 12 154 3.2 9.7 0.20 0.30 0.30 89 1005.8
20260506202013 13 218 1.6 6.4 0.23 0.30 0.30 89 1005.9
20260506201522 13 240 1.6 14.5 0.23 0.30 0.30 89 1005.8
20260506201008 13 200 3.2 14.5 0.25 0.30 0.30 88 1005.9
20260506200507 13 267 1.6 11.3 0.25 0.30 0.30 89 1006.4
20260506200026 13 262 0.0 11.3 0.25 0.28 0.28 89 1006.0
20260506195508 13 77 0.0 8.0 0.25 0.28 0.28 89 1005.9
20260506195009 13 219 1.6 8.0 0.28 0.28 0.28 89 1006.4
20260506194514 13 217 1.6 6.4 0.25 0.25 0.25 89 1006.7
20260506194009 13 113 0.0 4.8 0.18 0.18 0.18 87 1006.2
20260506193509 13 102 1.6 6.4 0.13 0.13 0.13 87 1006.8
20260506193015 13 202 0.0 6.4 0.10 0.10 0.10 87 1006.6
20260506192509 12 204 1.6 6.4 0.10 0.10 0.10 87 1006.5
20260506192011 12 191 0.0 3.2 0.08 0.08 0.08 87 1006.4
20260506191524 12 269 0.0 6.4 0.08 0.08 0.08 85 1006.4
20260506191011 12 233 1.6 6.4 0.05 0.05 0.05 85 1006.5
20260506190510 12 221 1.6 9.7 0.05 0.05 0.05 84 1006.8
20260506190027 12 107 3.2 11.3 0.03 0.03 0.03 83 1006.8
20260506185510 12 200 4.8 11.3 0.03 0.03 0.03 83 1006.7
20260506185007 12 266 3.2 17.7 0.00 0.00 0.00 82 1006.7
20260506184526 13 249 6.4 17.7 0.00 0.00 0.00 82 1006.6
20260506184007 13 98 4.8 14.5 0.00 0.00 0.00 81 1006.5
20260506183512 13 233 4.8 17.7 0.00 0.00 0.00 80 1006.4
20260506183014 13 214 4.8 19.3 0.00 0.00 0.00 78 1006.5
20260506182506 13 181 4.8 19.3 0.00 0.00 0.00 77 1006.3
20260506182011 13 231 6.4 20.9 0.00 0.00 0.00 77 1006.3
20260506181529 13 186 6.4 20.9 0.00 0.00 0.00 76 1006.5
20260506181007 13 229 8.0 17.7 0.00 0.00 0.00 76 1006.4
20260506180519 13 119 4.8 17.7 0.00 0.00 0.00 76 1006.5
20260506180032 14 230 6.4 16.1 0.00 0.00 0.00 75 1006.6
20260506175515 14 288 6.4 17.7 0.00 0.00 0.00 75 1006.5
20260506175011 14 210 8.0 17.7 0.00 0.00 0.00 75 1006.5
20260506174526 14 115 4.8 17.7 0.00 0.00 0.00 75 1006.6
20260506174012 14 245 3.2 17.7 0.00 0.00 0.00 75 1006.7
20260506173507 14 214 4.8 11.3 0.00 0.00 0.00 75 1006.8
20260506173028 14 237 3.2 11.3 0.00 0.00 0.00 74 1006.9
20260506172507 15 205 3.2 17.7 0.00 0.00 0.00 75 1006.9
20260506172012 15 221 3.2 17.7 0.00 0.00 0.00 74 1007.0
20260506171534 15 151 3.2 12.9 0.00 0.00 0.00 74 1007.0
20260506171008 15 15 4.8 12.9 0.00 0.00 0.00 73 1007.0
20260506170509 15 243 1.6 11.3 0.00 0.00 0.00 73 1007.0
20260506170019 16 177 3.2 6.4 0.00 0.00 0.00 73 1007.1
20260506165512 16 128 1.6 9.7 0.00 0.00 0.00 73 1007.2
20260506165008 16 226 3.2 9.7 0.00 0.00 0.00 73 1007.2
20260506164524 16 221 1.6 9.7 0.00 0.00 0.00 73 1007.4
20260506164011 16 172 1.6 6.4 0.00 0.00 0.00 73 1007.4
20260506163511 16 174 1.6 6.4 0.00 0.00 0.00 72 1007.6
20260506163031 16 308 0.0 6.4 0.00 0.00 0.00 72 1007.6
20260506162510 16 236 0.0 6.4 0.00 0.00 0.00 72 1007.8
20260506162015 16 250 0.0 9.7 0.00 0.00 0.00 73 1007.9
20260506161520 16 242 1.6 9.7 0.00 0.00 0.00 72 1008.0
20260506161007 16 342 1.6 14.5 0.00 0.00 0.00 72 1008.1
20260506160508 16 77 1.6 14.5 0.00 0.00 0.00 73 1008.3
20260506160018 16 158 1.6 11.3 0.00 0.00 0.00 73 1008.4
20260506155511 16 203 3.2 11.3 0.00 0.00 0.00 73 1008.3
20260506155010 16 248 1.6 9.7 0.00 0.00 0.00 74 1008.5
20260506154526 16 163 1.6 11.3 0.00 0.00 0.00 74 1008.6
20260506154011 15 359 3.2 11.3 0.00 0.00 0.00 74 1008.3
20260506153514 15 234 1.6 8.0 0.00 0.00 0.00 76 1008.5
20260506153024 15 224 1.6 11.3 0.00 0.00 0.00 75 1008.4
20260506152513 15 129 3.2 11.3 0.00 0.00 0.00 75 1008.6
20260506152013 15 243 3.2 9.7 0.00 0.00 0.00 75 1008.7
20260506151528 15 240 1.6 9.7 0.00 0.00 0.00 74 1008.6
20260506151012 16 212 0.0 8.0 0.00 0.00 0.00 75 1008.5
20260506150511 15 214 0.0 9.7 0.00 0.00 0.00 75 1008.5
20260506150022 15 261 1.6 9.7 0.00 0.00 0.00 75 1008.5
20260506145508 15 180 1.6 12.9 0.00 0.00 0.00 75 1008.3
20260506145008 16 243 6.4 12.9 0.00 0.00 0.00 74 1008.2
20260506144521 16 188 1.6 8.0 0.00 0.00 0.00 74 1008.2
20260506144009 16 204 1.6 8.0 0.00 0.00 0.00 74 1008.1
20260506143509 15 107 1.6 6.4 0.00 0.00 0.00 74 1008.1
20260506143023 15 236 1.6 6.4 0.00 0.00 0.00 75 1008.1
20260506142512 15 141 0.0 6.4 0.00 0.00 0.00 75 1008.2
20260506142013 15 175 1.6 6.4 0.00 0.00 0.00 75 1008.3
20260506141526 15 145 0.0 4.8 0.00 0.00 0.00 76 1008.5
20260506141011 15 113 0.0 4.8 0.00 0.00 0.00 76 1008.5
20260506140507 15 133 1.6 4.8 0.00 0.00 0.00 75 1008.6
20260506140026 15 99 0.0 3.2 0.00 0.00 0.00 75 1008.7
20260506135509 15 30 0.0 1.6 0.00 0.00 0.00 76 1008.7
20260506135013 15 165 0.0 4.8 0.00 0.00 0.00 77 1008.7
20260506134543 14 231 0.0 4.8 0.00 0.00 0.00 77 1008.7
20260506134012 14 189 1.6 6.4 0.00 0.00 0.00 77 1008.7
20260506133511 14 181 1.6 9.7 0.00 0.00 0.00 77 1008.7
20260506133022 14 153 0.0 9.7 0.00 0.00 0.00 77 1008.8
20260506132511 15 89 0.0 3.2 0.00 0.00 0.00 76 1008.6
20260506132011 15 150 0.0 6.4 0.00 0.00 0.00 76 1008.5
20260506131528 15 235 0.0 6.4 0.00 0.00 0.00 75 1008.5
20260506131008 15 128 0.0 4.8 0.00 0.00 0.00 76 1008.5
20260506130519 15 103 1.6 4.8 0.00 0.00 0.00 76 1008.5
20260506130024 15 138 0.0 4.8 0.00 0.00 0.00 75 1008.5
20260506125512 15 88 0.0 3.2 0.00 0.00 0.00 75 1008.5
20260506125008 15 145 0.0 4.8 0.00 0.00 0.00 75 1008.6
20260506124526 15 116 0.0 4.8 0.00 0.00 0.00 76 1008.6
20260506124010 15 120 0.0 1.6 0.00 0.00 0.00 76 1008.6
20260506123512 14 99 0.0 1.6 0.00 0.00 0.00 77 1008.6
20260506123020 14 120 0.0 1.6 0.00 0.00 0.00 77 1008.6
20260506122511 14 136 0.0 1.6 0.00 0.00 0.00 77 1008.6
20260506122007 13 209 0.0 1.6 0.00 0.00 0.00 77 1008.9
20260506121522 13 228 0.0 3.2 0.00 0.00 0.00 78 1008.8
20260506121009 13 155 0.0 4.8 0.00 0.00 0.00 78 1008.8
20260506120510 13 108 1.6 4.8 0.00 0.00 0.00 78 1009.0
20260506120025 13 161 0.0 3.2 0.00 0.00 0.00 78 1008.9
20260506115509 13 168 0.0 3.2 0.00 0.00 0.00 78 1008.9
20260506115014 13 118 0.0 1.6 0.00 0.00 0.00 78 1009.2
20260506114534 13 119 0.0 1.6 0.00 0.00 0.00 78 1009.2
20260506114011 13 117 0.0 1.6 0.00 0.00 0.00 79 1009.2
20260506113511 13 198 0.0 3.2 0.00 0.00 0.00 79 1009.3
20260506113032 13 209 1.6 3.2 0.00 0.00 0.00 79 1009.4
20260506112509 12 184 0.0 1.6 0.00 0.00 0.00 80 1009.1
20260506112015 12 221 0.0 0.0 0.00 0.00 0.00 80 1009.1
20260506111522 12 230 0.0 0.0 0.00 0.00 0.00 81 1009.2
20260506111009 12 230 0.0 0.0 0.00 0.00 0.00 81 1009.4
20260506110509 12 230 0.0 0.0 0.00 0.00 0.00 81 1009.2
20260506110026 12 230 0.0 0.0 0.00 0.00 0.00 81 1009.3
20260506105510 12 230 0.0 0.0 0.00 0.00 0.00 82 1009.2
20260506105010 11 230 0.0 0.0 0.00 0.00 0.00 82 1009.2
20260506104526 11 243 0.0 1.6 0.00 0.00 0.00 82 1009.2
20260506104009 11 243 0.0 1.6 0.00 0.00 0.00 82 1009.3
20260506103510 11 215 0.0 1.6 0.00 0.00 0.00 82 1009.0
20260506103028 11 138 0.0 1.6 0.00 0.00 0.00 82 1008.9
20260506102510 11 204 0.0 0.0 0.00 0.00 0.00 82 1008.8
20260506102013 11 204 0.0 0.0 0.00 0.00 0.00 82 1009.0
20260506101526 11 204 0.0 0.0 0.00 0.00 0.00 82 1009.1